�N����,����,�~����,�C��,���x,�C��,����,���ϕ���,�ő�u�ԕ���,�ő厞����,���˗�,�I�_���x,�n�����x,�ő啗���N��,DTYPE
"19/06/25","00:10",0.0,18.2,85.6,1009.7,311.2,1.7,3.3,331.0,0.00,15.8,22.2,"00:08:00",1
"19/06/25","00:20",0.0,18.3,85.2,1009.5,332.6,1.5,2.6,328.7,0.00,15.8,22.0,"00:15:44",1
"19/06/25","00:30",0.0,18.4,85.0,1010.0,346.8,1.1,2.1,343.2,0.00,15.9,22.0,"00:20:16",1
"19/06/25","00:40",0.0,18.2,85.0,1010.0,333.9,1.2,1.9,335.0,0.00,15.7,21.8,"00:38:16",1
"19/06/25","00:50",0.0,18.0,85.6,1009.7,322.6,1.7,2.4,328.9,0.00,15.6,21.8,"00:43:04",1
"19/06/25","01:00",0.0,17.7,86.2,1010.0,295.5,1.2,1.9,308.2,0.00,15.4,21.8,"00:50:08",1
"19/06/25","01:10",0.0,17.5,86.6,1009.7,291.2,1.1,1.9,311.8,0.00,15.3,21.8,"01:01:36",1
"19/06/25","01:20",0.0,17.6,87.2,1009.7,281.2,1.1,1.8,312.5,0.00,15.5,21.5,"01:15:04",1
"19/06/25","01:30",0.0,17.6,87.5,1009.7,310.1,1.6,2.4,316.3,0.00,15.5,21.7,"01:20:40",1
"19/06/25","01:40",0.0,17.6,88.0,1009.7,306.9,1.3,2.9,332.2,0.00,15.6,21.5,"01:39:12",1
"19/06/25","01:50",0.0,17.6,87.8,1009.7,328.6,1.6,2.5,351.2,0.00,15.6,21.6,"01:45:20",1
"19/06/25","02:00",0.0,17.5,88.2,1009.7,324.6,1.7,2.8,332.4,0.00,15.6,21.4,"01:52:56",1
"19/06/25","02:10",0.0,17.3,88.4,1009.7,297.1,1.3,2.2,324.2,0.00,15.4,21.3,"02:00:08",1
"19/06/25","02:20",0.0,17.1,88.8,1010.0,307.9,1.1,1.7,317.0,0.00,15.3,21.3,"02:19:20",1
"19/06/25","02:30",0.0,17.0,89.3,1010.0,313.6,1.5,2.4,315.8,0.00,15.3,21.3,"02:26:40",1
"19/06/25","02:40",0.0,17.1,89.9,1010.0,322.5,1.6,2.5,333.8,0.00,15.5,21.1,"02:39:12",1
"19/06/25","02:50",0.0,17.4,89.2,1010.4,320.4,2.0,3.2,309.8,0.00,15.6,21.2,"02:40:56",1
"19/06/25","03:00",0.0,17.1,89.5,1010.4,321.4,1.5,2.7,335.3,0.00,15.4,20.9,"02:58:24",1
"19/06/25","03:10",0.0,17.0,89.9,1010.4,323.4,1.7,2.7,330.7,0.00,15.4,21.1,"03:05:32",1
"19/06/25","03:20",0.0,17.0,89.8,1010.2,293.8,1.5,2.4,335.3,0.00,15.4,20.9,"03:16:48",1
"19/06/25","03:30",0.0,16.8,89.7,1010.4,295.4,1.2,1.9,251.7,0.00,15.1,21.0,"03:20:24",1
"19/06/25","03:40",0.0,16.8,90.2,1010.7,306.9,1.5,3.2,341.9,0.00,15.2,20.8,"03:37:36",1
"19/06/25","03:50",0.0,16.9,90.0,1011.2,308.5,1.8,3.5,322.1,0.00,15.3,20.7,"03:43:28",1
"19/06/25","04:00",0.0,17.0,89.5,1010.7,310.9,1.8,2.8,325.1,0.00,15.3,21.0,"03:57:04",1
"19/06/25","04:10",0.0,17.0,89.7,1010.7,319.3,1.8,2.6,319.0,0.00,15.3,20.8,"04:00:32",1
"19/06/25","04:20",0.0,17.2,89.9,1010.9,317.6,2.3,4.1,330.6,0.00,15.6,20.7,"04:19:12",1
"19/06/25","04:30",0.0,17.3,89.5,1010.7,321.1,2.8,4.3,326.1,0.00,15.6,20.6,"04:27:12",1
"19/06/25","04:40",0.0,17.1,89.1,1010.7,328.5,2.1,4.3,321.8,0.00,15.3,20.7,"04:33:28",1
"19/06/25","04:50",0.0,16.9,89.6,1010.9,327.4,2.1,3.5,325.5,0.00,15.2,20.6,"04:46:56",1
"19/06/25","05:00",0.0,16.8,89.7,1011.4,326.3,1.5,2.5,339.4,0.00,15.1,20.7,"04:59:44",1
"19/06/25","05:10",0.0,16.7,89.8,1011.4,330.5,1.5,3.1,337.4,0.00,15.1,20.5,"05:02:40",1
"19/06/25","05:20",0.0,16.7,89.9,1011.6,331.8,1.6,2.8,327.9,0.00,15.1,20.5,"05:14:40",1
"19/06/25","05:30",0.0,16.7,90.0,1011.4,335.4,1.3,2.7,342.7,0.00,15.1,20.7,"05:24:00",1
"19/06/25","05:40",0.0,16.6,90.5,1011.4,323.8,1.6,2.6,339.0,0.00,15.1,20.4,"05:38:00",1
"19/06/25","05:50",0.0,16.7,90.5,1011.2,331.3,1.6,2.5,352.6,0.00,15.2,20.5,"05:48:32",1
"19/06/25","06:00",0.0,16.7,90.6,1011.4,336.6,1.7,3.2,340.8,0.00,15.2,20.6,"05:58:48",1
"19/06/25","06:10",0.0,16.8,90.7,1011.4,336.9,1.7,2.5,334.6,0.00,15.3,20.4,"06:00:56",1
"19/06/25","06:20",0.0,17.1,90.3,1011.4,336.9,1.8,3.4,341.1,0.01,15.5,20.5,"06:16:16",1
"19/06/25","06:30",0.0,17.9,90.1,1011.2,335.6,2.1,3.4,314.9,0.03,16.3,20.3,"06:28:24",1
"19/06/25","06:40",0.0,18.6,88.9,1011.2,330.6,2.0,3.2,342.6,0.04,16.8,20.3,"06:39:52",1
"19/06/25","06:50",0.0,19.0,87.1,1011.2,335.4,2.0,4.0,341.0,0.06,16.8,20.4,"06:43:36",1
"19/06/25","07:00",0.0,19.8,85.4,1011.6,333.9,1.6,3.7,326.7,0.08,17.3,20.5,"06:55:36",1
"19/06/25","07:10",0.0,20.1,82.7,1011.9,324.6,1.3,2.5,333.3,0.10,17.1,20.5,"07:03:12",1
"19/06/25","07:20",0.0,20.7,79.8,1011.6,339.2,1.1,2.5,345.9,0.12,17.1,20.7,"07:15:04",1
"19/06/25","07:30",0.0,21.3,78.6,1011.4,335.9,1.1,3.2,343.1,0.14,17.5,20.8,"07:20:08",1
"19/06/25","07:40",0.0,21.2,76.5,1011.9,323.2,1.0,2.0,4.1,0.17,16.9,20.8,"07:39:36",1
"19/06/25","07:50",0.0,21.9,73.6,1011.4,8.1,0.8,1.9,356.5,0.19,17.0,20.9,"07:43:36",1
"19/06/25","08:00",0.0,22.0,73.1,1011.6,354.5,0.7,1.9,9.1,0.22,17.0,21.0,"07:53:44",1
"19/06/25","08:10",0.0,22.4,73.0,1011.4,14.9,0.6,1.8,356.1,0.24,17.4,21.3,"08:08:32",1
"19/06/25","08:20",0.0,22.3,74.4,1011.4,124.6,0.8,1.8,342.7,0.27,17.6,21.4,"08:11:44",1
"19/06/25","08:30",0.0,22.7,72.8,1010.9,160.3,0.6,1.7,163.1,0.29,17.6,21.2,"08:24:24",1
"19/06/25","08:40",0.0,22.9,72.2,1010.7,143.5,1.1,2.4,130.9,0.32,17.7,21.7,"08:38:48",1
"19/06/25","08:50",0.0,23.3,70.3,1010.7,75.7,0.7,1.8,40.2,0.34,17.6,21.3,"08:44:00",1
"19/06/25","09:00",0.0,23.2,69.5,1010.4,129.9,0.7,2.0,151.8,0.36,17.4,21.8,"08:56:32",1
"19/06/25","09:10",0.0,23.7,68.8,1009.7,193.8,1.2,3.5,220.4,0.38,17.7,21.9,"09:03:20",1
"19/06/25","09:20",0.0,23.9,66.4,1010.2,102.9,0.7,2.4,9.0,0.41,17.3,22.1,"09:19:36",1
"19/06/25","09:30",0.0,24.5,67.9,1010.2,247.7,0.7,2.1,169.0,0.42,18.2,22.3,"09:26:24",1
"19/06/25","09:40",0.0,24.3,67.5,1010.4,227.6,1.1,2.7,199.0,0.44,17.9,22.6,"09:30:08",1
"19/06/25","09:50",0.0,24.7,65.4,1010.7,152.9,1.0,2.5,168.4,0.47,17.8,22.5,"09:45:28",1
"19/06/25","10:00",0.0,24.3,65.5,1010.4,229.2,1.0,4.2,186.4,0.39,17.5,22.7,"09:54:00",1
"19/06/25","10:10",0.0,23.9,66.6,1010.4,188.8,1.5,3.5,206.1,0.28,17.3,23.0,"10:03:28",1
"19/06/25","10:20",0.0,24.3,65.4,1009.7,236.5,1.5,3.9,218.8,0.30,17.4,23.1,"10:18:32",1
"19/06/25","10:30",0.0,24.9,64.6,1009.7,273.0,1.1,2.8,228.0,0.33,17.8,23.1,"10:29:04",1
"19/06/25","10:40",0.0,26.0,65.4,1009.7,222.7,1.1,3.3,217.1,0.55,19.1,23.5,"10:34:32",1
"19/06/25","10:50",0.0,24.7,63.7,1010.2,193.7,1.5,3.7,187.6,0.32,17.4,23.5,"10:42:24",1
"19/06/25","11:00",0.0,26.4,62.0,1010.0,205.2,1.2,3.4,189.7,0.53,18.6,23.7,"10:59:36",1
"19/06/25","11:10",0.0,26.3,61.6,1010.4,141.0,1.5,4.0,64.9,0.58,18.4,23.8,"11:07:12",1
"19/06/25","11:20",0.0,27.2,60.1,1010.4,197.3,1.5,3.2,202.1,0.59,18.8,24.2,"11:12:56",1
"19/06/25","11:30",0.0,26.8,57.2,1010.4,210.6,1.2,2.7,229.1,0.56,17.7,24.9,"11:25:04",1
"19/06/25","11:40",0.0,26.7,58.6,1010.7,270.1,1.0,2.6,229.0,0.45,18.0,24.8,"11:34:56",1
"19/06/25","11:50",0.0,27.3,54.4,1010.7,279.9,1.1,2.0,336.3,0.61,17.3,24.9,"11:41:52",1
"19/06/25","12:00",0.0,27.1,54.8,1010.9,156.5,1.3,2.8,128.7,0.60,17.3,25.3,"11:54:08",1
"19/06/25","12:10",0.0,27.5,54.3,1010.7,185.6,1.3,3.9,198.2,0.61,17.5,25.6,"12:05:52",1
"19/06/25","12:20",0.0,28.1,53.3,1010.4,230.1,0.8,3.5,226.1,0.61,17.8,26.0,"12:10:08",1
"19/06/25","12:30",0.0,28.1,52.5,1010.4,247.1,1.1,2.4,191.9,0.61,17.5,26.2,"12:27:20",1
"19/06/25","12:40",0.0,28.7,52.0,1010.7,163.7,0.8,1.7,198.0,0.61,17.9,26.4,"12:34:48",1
"19/06/25","12:50",0.0,29.3,52.5,1010.9,142.0,0.8,2.7,125.9,0.61,18.6,26.8,"12:41:52",1
"19/06/25","13:00",0.0,28.8,50.8,1010.4,162.6,1.3,3.1,226.0,0.61,17.6,26.7,"12:55:44",1
"19/06/25","13:10",0.0,28.8,47.3,1010.2,204.8,2.1,4.8,208.9,0.61,16.5,27.0,"13:07:44",1
"19/06/25","13:20",0.0,28.9,47.1,1010.0,195.2,1.6,3.1,141.7,0.61,16.5,27.0,"13:19:44",1
"19/06/25","13:30",0.0,29.6,44.6,1010.0,77.0,0.8,2.1,74.9,0.62,16.3,26.7,"13:29:52",1
"19/06/25","13:40",0.0,29.5,46.1,1010.2,36.7,1.2,2.6,5.2,0.61,16.7,26.7,"13:38:32",1
"19/06/25","13:50",0.0,28.6,45.1,1010.2,42.0,1.1,2.4,79.6,0.40,15.6,26.6,"13:47:04",1
"19/06/25","14:00",0.0,29.6,47.7,1009.7,196.8,1.3,4.4,134.6,0.47,17.4,26.5,"13:57:44",1
"19/06/25","14:10",0.0,29.7,46.5,1009.5,214.0,0.8,2.5,202.3,0.33,17.1,26.6,"14:01:04",1
"19/06/25","14:20",0.0,30.1,44.4,1009.7,292.0,1.2,3.9,193.4,0.57,16.7,26.5,"14:19:20",1
"19/06/25","14:30",0.0,29.7,44.2,1009.0,122.5,0.7,2.5,185.4,0.28,16.3,26.7,"14:20:02",1
"19/06/25","14:40",0.0,29.7,41.0,1009.0,175.0,1.6,3.6,140.2,0.53,15.1,26.9,"14:33:52",1
"19/06/25","14:50",0.0,30.5,41.3,1009.0,40.0,1.0,2.5,339.0,0.52,15.9,27.1,"14:41:12",1
"19/06/25","15:00",0.0,30.2,44.0,1009.3,164.5,1.1,2.1,166.8,0.51,16.6,27.1,"14:52:24",1
"19/06/25","15:10",0.0,30.6,40.8,1009.3,11.3,1.2,3.5,330.3,0.49,15.8,27.3,"15:07:04",1
"19/06/25","15:20",0.0,30.8,41.9,1009.0,340.3,1.5,2.9,324.3,0.47,16.4,27.3,"15:14:48",1
"19/06/25","15:30",0.0,30.8,40.2,1009.3,273.7,0.8,3.9,336.5,0.46,15.8,27.3,"15:26:00",1
"19/06/25","15:40",0.0,30.6,39.9,1009.3,310.4,0.8,2.1,334.2,0.44,15.5,27.5,"15:32:24",1
"19/06/25","15:50",0.0,30.2,39.9,1009.0,217.5,1.5,4.0,221.2,0.30,15.1,27.4,"15:48:00",1
"19/06/25","16:00",0.0,30.7,38.9,1009.3,190.4,1.2,2.8,201.3,0.41,15.2,27.6,"15:58:32",1
"19/06/25","16:10",0.0,30.9,35.4,1009.0,214.1,2.0,4.1,223.5,0.40,13.9,27.5,"16:07:52",1
"19/06/25","16:20",0.0,31.3,36.4,1008.6,212.1,1.7,3.5,226.4,0.36,14.7,27.4,"16:11:20",1
"19/06/25","16:30",0.0,32.0,32.4,1008.6,326.4,0.8,1.9,305.0,0.33,13.5,27.2,"16:20:32",1
"19/06/25","16:40",0.0,31.9,32.5,1008.6,54.3,1.0,2.2,40.4,0.30,13.4,27.2,"16:33:28",1
"19/06/25","16:50",0.0,31.8,32.6,1008.8,258.7,0.8,3.4,335.3,0.28,13.4,27.3,"16:45:04",1
"19/06/25","17:00",0.0,31.4,33.2,1008.6,215.7,1.3,4.0,217.6,0.26,13.3,27.3,"16:59:20",1
"19/06/25","17:10",0.0,31.6,34.7,1008.3,249.7,1.2,3.1,233.2,0.22,14.2,27.2,"17:01:12",1
"19/06/25","17:20",0.0,31.3,32.9,1008.1,239.4,1.2,2.5,218.6,0.05,13.1,27.1,"17:10:40",1
"19/06/25","17:30",0.0,31.0,34.6,1007.8,239.2,1.3,4.1,216.3,0.01,13.6,27.1,"17:28:32",1
"19/06/25","17:40",0.0,30.5,35.0,1007.6,198.8,2.2,4.2,225.5,0.01,13.4,27.0,"17:31:20",1
"19/06/25","17:50",0.0,30.5,36.1,1007.8,231.5,1.5,4.1,219.5,0.01,13.8,27.0,"17:44:08",1
"19/06/25","18:00",0.0,30.3,39.0,1007.8,205.0,1.3,3.3,220.3,0.01,14.8,26.8,"17:57:52",1
"19/06/25","18:10",0.0,29.8,39.2,1007.6,184.2,2.2,3.5,225.1,0.01,14.5,26.7,"18:04:24",1
"19/06/25","18:20",0.0,29.7,40.6,1007.6,197.2,2.1,5.0,223.3,0.01,14.9,26.7,"18:10:48",1
"19/06/25","18:30",0.0,29.4,41.4,1007.8,197.9,2.2,4.1,218.8,0.01,15.0,26.4,"18:21:44",1
"19/06/25","18:40",0.0,29.2,40.8,1007.6,200.6,2.2,4.0,212.9,0.01,14.6,26.4,"18:33:28",1
"19/06/25","18:50",0.0,28.9,41.7,1007.4,206.2,2.1,3.6,224.2,0.02,14.6,26.2,"18:44:00",1
"19/06/25","19:00",0.0,28.4,43.5,1007.1,196.5,1.8,3.7,196.8,0.00,14.8,26.2,"18:52:08",1
"19/06/25","19:10",0.0,27.9,46.0,1006.9,203.1,1.2,2.9,212.7,0.00,15.3,25.9,"19:00:08",1
"19/06/25","19:20",0.0,27.5,46.5,1007.1,256.4,1.1,2.0,223.0,0.00,15.1,25.8,"19:10:48",1
"19/06/25","19:30",0.0,26.4,49.8,1007.6,329.1,1.2,2.0,339.8,0.00,15.1,25.5,"19:26:00",1
"19/06/25","19:40",0.0,25.4,52.5,1007.8,301.0,0.8,1.7,335.2,0.00,15.0,25.4,"19:30:56",1
"19/06/25","19:50",0.0,24.8,56.6,1007.8,341.3,1.3,2.9,349.4,0.00,15.6,25.1,"19:44:32",1
"19/06/25","20:00",0.0,24.2,57.4,1008.1,330.8,1.2,2.5,347.9,0.00,15.3,25.2,"19:52:48",1
"19/06/25","20:10",0.0,24.1,57.7,1008.6,336.9,1.0,1.4,339.2,0.00,15.3,25.1,"20:06:00",1
"19/06/25","20:20",0.0,23.9,58.6,1008.6,293.0,0.8,1.9,339.6,0.00,15.3,24.8,"20:15:44",1
"19/06/25","20:30",0.0,23.4,59.5,1008.8,317.6,1.0,1.3,332.1,0.00,15.1,24.6,"20:26:40",1
"19/06/25","20:40",0.0,24.0,61.0,1009.0,345.0,1.5,2.5,342.0,0.00,16.1,24.6,"20:34:40",1
"19/06/25","20:50",0.0,23.5,62.1,1009.5,339.6,1.6,2.4,338.1,0.00,15.9,24.6,"20:47:12",1
"19/06/25","21:00",0.0,23.4,61.4,1009.7,331.5,2.1,2.7,327.5,0.00,15.6,24.2,"20:54:08",1
"19/06/25","21:10",0.0,23.2,61.1,1010.2,325.5,1.1,2.7,329.8,0.00,15.3,24.4,"21:01:52",1
"19/06/25","21:20",0.0,22.8,63.5,1009.7,324.3,0.7,1.9,324.8,0.00,15.6,24.2,"21:19:12",1
"19/06/25","21:30",0.0,22.4,64.6,1010.4,314.5,1.2,1.7,333.9,0.00,15.4,24.0,"21:26:56",1
"19/06/25","21:40",0.0,22.2,65.4,1010.4,312.4,1.2,1.9,322.1,0.00,15.4,24.0,"21:32:40",1
"19/06/25","21:50",0.0,22.1,66.2,1010.7,322.9,1.6,3.1,331.9,0.00,15.5,23.7,"21:43:20",1
"19/06/25","22:00",0.0,22.3,66.8,1010.7,353.6,1.1,2.1,351.2,0.00,15.9,23.7,"21:59:28",1
"19/06/25","22:10",0.0,21.9,67.1,1010.9,324.1,1.1,2.0,344.7,0.00,15.6,23.6,"22:00:48",1
"19/06/25","22:20",0.0,21.6,67.6,1011.2,311.4,1.3,2.2,313.3,0.00,15.4,23.5,"22:16:08",1
"19/06/25","22:30",0.0,21.2,68.6,1011.2,313.3,1.1,2.5,334.4,0.00,15.2,23.4,"22:26:40",1
"19/06/25","22:40",0.0,21.0,69.6,1011.2,304.3,0.8,2.0,336.1,0.00,15.3,23.4,"22:33:52",1
"19/06/25","22:50",0.0,20.9,70.9,1010.9,289.6,0.8,1.6,321.6,0.00,15.5,23.0,"22:44:48",1
"19/06/25","23:00",0.0,20.6,71.4,1011.4,289.7,0.8,1.3,323.3,0.00,15.3,23.2,"22:58:56",1
"19/06/25","23:10",0.0,20.3,73.0,1011.2,294.3,0.8,1.4,323.8,0.00,15.3,23.1,"23:00:02",1
"19/06/25","23:20",0.0,20.3,74.1,1011.6,315.2,1.1,1.9,338.5,0.00,15.6,23.0,"23:18:32",1
"19/06/25","23:30",0.0,20.4,74.7,1011.4,302.4,1.1,2.2,334.8,0.00,15.8,22.8,"23:25:36",1
"19/06/25","23:40",0.0,20.4,74.8,1011.4,291.1,1.1,2.5,312.7,0.00,15.8,22.7,"23:38:08",1
"19/06/25","23:50",0.0,20.3,75.0,1011.4,288.3,1.0,2.1,320.7,0.00,15.8,22.7,"23:40:08",1
"19/06/25","24:00",0.0,20.3,75.2,1011.4,293.6,1.0,1.8,326.0,0.00,15.8,22.4,"23:53:28",1
